Torna al catalogo

ONEWEB-0185

AttivoComunicazioniPO
NORAD 48220·PAYLOAD·🇬🇧 United Kingdom

Lanciato Apr 25, 2021 da Vostochny Cosmodrome

Loading…

Prossimi Passaggi (prossime 24 ore)

TLE

AggiornatoSource: CelesTrak SupGP

Epoca: Sep 14, 2026, 16:02 UTC

1 48220C 21031L   26257.66854581 -.00001143  00000+0 -30867-2 0  2571
2 48220  87.8895 271.8578 0001723 103.9659 314.3368 13.14503149    17

Traccia ONEWEB-0185 in tempo reale con AllMySat

Download on the App Store